Time,TemperatureF,DewpointF,PressureIn,WindDirection,WindDirectionDegrees,WindSpeedMPH,WindSpeedGustMPH,Humidity,HourlyPrecipIn,Conditions,Clouds,dailyrainin,SoftwareType,DateUTC
2015-01-25 00:22:00,42.0,38.0,-100.00,SSW,210,2.0,4.0,83,0.00,,,-99.99,,2015-01-25 06:22:00,
2015-01-25 00:42:00,42.0,38.0,-100.00,SW,220,5.0,5.0,83,0.01,,,-99.99,,2015-01-25 06:42:00,
2015-01-25 01:23:00,42.0,38.0,-100.00,NNE,20,3.0,4.0,88,0.04,,,-99.99,,2015-01-25 07:23:00,
2015-01-25 01:43:00,40.0,38.0,-100.00,NE,50,3.0,6.0,91,0.00,,,-99.99,,2015-01-25 07:43:00,
2015-01-25 02:22:00,40.0,38.0,-100.00,ENE,70,4.0,6.0,92,0.00,,,-99.99,,2015-01-25 08:22:00,
2015-01-25 02:43:00,40.0,38.0,-100.00,NE,35,3.0,6.0,92,0.00,,,-99.99,,2015-01-25 08:43:00,
2015-01-25 03:22:00,39.0,37.0,-100.00,North,0,4.0,6.0,93,0.04,,,-99.99,,2015-01-25 09:22:00,
2015-01-25 03:44:00,39.0,38.0,-100.00,NE,40,5.0,7.0,94,0.03,,,-99.99,,2015-01-25 09:44:00,
2015-01-25 04:23:00,38.0,37.0,-100.00,NNE,30,5.0,11.0,96,0.00,,,-99.99,,2015-01-25 10:23:00,
2015-01-25 04:44:00,38.0,37.0,-100.00,NNE,30,6.0,9.0,96,0.01,,,-99.99,,2015-01-25 10:44:00,
2015-01-25 05:23:00,37.0,36.0,-100.00,North,0,6.0,9.0,96,0.00,,,-99.99,,2015-01-25 11:23:00,
2015-01-25 05:43:00,37.0,36.0,-100.00,North,350,8.0,12.0,96,0.00,,,-99.99,,2015-01-25 11:43:00,
2015-01-25 06:22:00,36.0,35.0,-100.00,North,350,9.0,15.0,96,0.00,,,-99.99,,2015-01-25 12:22:00,
2015-01-25 06:42:00,36.0,35.0,-100.00,North,0,11.0,15.0,96,0.00,,,-99.99,,2015-01-25 12:42:00,
2015-01-25 07:22:00,36.0,35.0,-100.00,North,0,12.0,16.0,96,0.30,,,-99.99,,2015-01-25 13:22:00,
2015-01-25 07:42:00,35.0,34.0,-100.00,North,0,11.0,18.0,96,0.25,,,-99.99,,2015-01-25 13:42:00,
2015-01-25 08:22:00,33.0,33.0,-100.00,North,0,9.0,15.0,97,0.43,,,-99.99,,2015-01-25 14:22:00,
2015-01-25 08:42:00,33.0,33.0,-100.00,NNE,30,11.0,19.0,97,0.04,,,-99.99,,2015-01-25 14:42:00,
2015-01-25 09:22:00,33.0,33.0,-100.00,NNE,30,10.0,19.0,97,0.08,,,-99.99,,2015-01-25 15:22:00,
2015-01-25 09:44:00,33.0,33.0,-100.00,NE,40,9.0,16.0,97,0.50,,,-99.99,,2015-01-25 15:44:00,
2015-01-25 10:23:00,33.0,33.0,-100.00,NNE,20,7.0,16.0,97,0.07,,,-99.99,,2015-01-25 16:23:00,
2015-01-25 10:43:00,33.0,33.0,-100.00,NNE,25,7.0,17.0,97,0.01,,,-99.99,,2015-01-25 16:43:00,
2015-01-25 11:22:00,33.0,32.0,-100.00,NE,50,13.0,21.0,96,0.00,,,-99.99,,2015-01-25 17:22:00,
2015-01-25 11:43:00,33.0,31.0,-100.00,NNE,25,10.0,19.0,95,0.00,,,-99.99,,2015-01-25 17:43:00,
2015-01-25 12:23:00,32.0,31.0,-100.00,NNE,20,9.0,20.0,94,0.00,,,-99.99,,2015-01-25 18:23:00,
2015-01-25 12:43:00,32.0,30.0,-100.00,NNE,20,8.0,14.0,92,0.00,,,-99.99,,2015-01-25 18:43:00,
2015-01-25 13:23:00,33.0,29.0,-100.00,NE,35,10.0,19.0,88,0.00,,,-99.99,,2015-01-25 19:23:00,
2015-01-25 13:42:00,33.0,29.0,-100.00,NE,40,11.0,18.0,85,0.00,,,-99.99,,2015-01-25 19:42:00,
2015-01-25 14:22:00,34.0,29.0,-100.00,North,0,9.0,15.0,83,0.00,,,-99.99,,2015-01-25 20:22:00,
2015-01-25 14:42:00,34.0,29.0,-100.00,NE,35,10.0,17.0,83,0.00,,,-99.99,,2015-01-25 20:42:00,
2015-01-25 15:22:00,34.0,29.0,-100.00,North,10,7.0,15.0,81,0.00,,,-99.99,,2015-01-25 21:22:00,
2015-01-25 15:43:00,34.0,29.0,-100.00,North,0,9.0,12.0,80,0.00,,,-99.99,,2015-01-25 21:43:00,
2015-01-25 16:23:00,33.0,29.0,-100.00,North,0,10.0,16.0,83,0.00,,,-99.99,,2015-01-25 22:23:00,
2015-01-25 16:43:00,33.0,28.0,-100.00,North,5,9.0,14.0,82,0.00,,,-99.99,,2015-01-25 22:43:00,
2015-01-25 17:23:00,33.0,29.0,-100.00,North,0,7.0,11.0,83,0.00,,,-99.99,,2015-01-25 23:23:00,
2015-01-25 17:42:00,33.0,29.0,-100.00,NNW,345,5.0,8.0,83,0.00,,,-99.99,,2015-01-25 23:42:00,
2015-01-25 18:22:00,33.0,27.0,-100.00,North,355,9.0,13.0,80,0.00,,,-99.99,,2015-01-26 00:22:00,